Terug naar catalogus

STARLINK-37067

ActiefCommunicatieVLEO
NORAD 68086·PAYLOAD·🇺🇸 United States

Gelanceerd Mar 4, 2026 vanaf Vandenberg Space Force Base

Loading…

Volgende Passages (komende 24 uur)

TLE

VersSource: CelesTrak SupGP

Epoch: Sep 15, 2026, 02:56 UTC

1 68086C 26042T   26258.12270833  .00050182  00000+0  14831-2 0  2583
2 68086  53.1595  13.0695 0001143  93.5806  94.1137 15.34356098    12

Volg STARLINK-37067 in realtime met AllMySat

Download on the App Store